Regional Weather Roundup
Issued by NWS Spokane, WA

Home | Current Version | Previous Version | Text Only | Print | Product List | Glossary On
Versions: 1 2 3 4 5 6 7 8 9 10 11 12 13 14 15 16 17 18 19 20 21 22 23 24 25 26 27 28 29 30 31 32 33 34 35 36 37 38 39 40 41 42 43 44 45 46 47 48 49 50
000
NZUS01 KOTX 241057
RWROTX

Eastern Washington/Northern Idaho Roundup
National Weather Service, Spokane WA
400 AM PDT WED MAY 24 2017

Note: "fair" indicated few or no clouds below 12,000 feet with no
significant weather and/or obstructions to visibility.

...Northeast Washington and Northern Idaho Panhandle...

CITY           SKY/WX    TMP DP  RH WIND       PRES   REMARKS
Spokane Intl   PTCLDY    49  30  48 W17G28    29.70R
Spokane Downto CLEAR     53  33  46 W17G25    29.70R
Deer Park      CLEAR     55  23  28 SW18G24   29.68R

...Southeast Washington and southern Idaho Panhandle...

CITY           SKY/WX    TMP DP  RH WIND       PRES   REMARKS
Walla Walla    CLEAR     55  43  63 SW13      29.90R
Pullman/Moscow CLEAR     52  34  50 W20G31    29.81R
Lowell           N/A     54  49  83 CALM      29.74R

...Columbia Basin...

CITY           SKY/WX    TMP DP  RH WIND       PRES   REMARKS
Ephrata        CLEAR     53  19  26 W28G37    29.78F
Moses Lake     CLEAR     54  19  25 W29G38    29.80F
Pasco          CLEAR     53  35  50 W10       29.88R
Hermiston      CLEAR     53  38  56 W17G30    29.90R
Pendleton      CLEAR     52  35  52 W23G30    29.90R

...East Slopes Cascades...

CITY           SKY/WX    TMP DP  RH WIND       PRES   REMARKS
The Dalles     CLEAR     53  35  50 NW21G36   29.98R
Yakima         CLEAR     52  30  43 W10       29.92R
Ellensburg     CLEAR     47  30  51 NW29G38   29.90S
Omak           CLEAR     50  22  33 NW10      29.77R
Sunnyside      SUNNY     49  32  51 W5        29.91R

...Southern British Columbia...

CITY           SKY/WX    TMP DP  RH WIND       PRES   REMARKS

...Western Montana...

CITY           SKY/WX    TMP DP  RH WIND       PRES   REMARKS
Missoula       CLEAR     64  33  31 W17G28    29.63F

...Neighboring Cities...

CITY           SKY/WX    TMP DP  RH WIND       PRES   REMARKS
Seattle        MOCLDY    49  39  68 S8        30.06F
Portland       MOCLDY    51  38  60 W8        30.13S
Boise          PTCLDY    62  44  51 CALM      29.76S
Great Falls    PTCLDY    66  39  37 SW18      29.45F



USA.gov is the U.S. government's official web portal to all federal, state and local government web resources and services.